Year,Month,Day,Hour,Minute,Value (Times are PST for temperature in C)
2013,08,25,00,00,13.40
2013,08,25,00,01,13.40
2013,08,25,00,02,13.30
2013,08,25,00,03,13.30
2013,08,25,00,04,13.30
2013,08,25,00,05,13.30
2013,08,25,00,06,13.30
2013,08,25,00,07,13.30
2013,08,25,00,08,13.30
2013,08,25,00,09,13.20
2013,08,25,00,10,13.20
2013,08,25,00,11,13.20
2013,08,25,00,12,13.20
2013,08,25,00,13,13.20
2013,08,25,00,14,13.20
2013,08,25,00,15,13.20
2013,08,25,00,16,13.10
2013,08,25,00,17,13.10
2013,08,25,00,18,13.10
2013,08,25,00,19,13.10
2013,08,25,00,20,13.10
2013,08,25,00,21,13.10
2013,08,25,00,22,13.00
2013,08,25,00,23,13.00
2013,08,25,00,24,13.00
2013,08,25,00,25,13.00
2013,08,25,00,26,12.90
2013,08,25,00,27,12.90
2013,08,25,00,28,12.90
2013,08,25,00,29,12.90
2013,08,25,00,30,12.80
2013,08,25,00,31,12.80
2013,08,25,00,32,12.80
2013,08,25,00,33,12.80
2013,08,25,00,34,12.80
2013,08,25,00,35,12.80
2013,08,25,00,36,12.80
2013,08,25,00,37,12.80
2013,08,25,00,38,12.80
2013,08,25,00,39,12.80
2013,08,25,00,40,12.80
2013,08,25,00,41,12.80
2013,08,25,00,42,12.70
2013,08,25,00,43,12.70
2013,08,25,00,44,12.70
2013,08,25,00,45,12.70
2013,08,25,00,46,12.60
2013,08,25,00,47,12.60
2013,08,25,00,48,12.60
2013,08,25,00,49,12.60
2013,08,25,00,50,12.60
2013,08,25,00,51,12.60
2013,08,25,00,52,12.50
2013,08,25,00,53,12.50
2013,08,25,00,54,12.50
2013,08,25,00,55,12.50
2013,08,25,00,56,12.50
2013,08,25,00,57,12.50
2013,08,25,00,58,12.50
2013,08,25,00,59,12.50
2013,08,25,01,00,12.40
2013,08,25,01,01,12.40
2013,08,25,01,02,12.40
2013,08,25,01,03,12.30
2013,08,25,01,04,12.30
2013,08,25,01,05,12.30
2013,08,25,01,06,12.30
2013,08,25,01,07,12.30
2013,08,25,01,08,12.30
2013,08,25,01,09,12.30
2013,08,25,01,10,12.20
2013,08,25,01,11,12.20
2013,08,25,01,12,12.20
2013,08,25,01,13,12.20
2013,08,25,01,14,12.20
2013,08,25,01,15,12.10
2013,08,25,01,16,12.10
2013,08,25,01,17,12.10
2013,08,25,01,18,12.10
2013,08,25,01,19,12.10
2013,08,25,01,20,12.00
2013,08,25,01,21,12.00
2013,08,25,01,22,12.00
2013,08,25,01,23,12.00
2013,08,25,01,24,11.90
2013,08,25,01,25,11.90
2013,08,25,01,26,11.90
2013,08,25,01,27,11.90
2013,08,25,01,28,11.90
2013,08,25,01,29,11.90
2013,08,25,01,30,11.80
2013,08,25,01,31,11.80
2013,08,25,01,32,11.80
2013,08,25,01,33,11.80
2013,08,25,01,34,11.80
2013,08,25,01,35,11.80
2013,08,25,01,36,11.80
2013,08,25,01,37,11.80
2013,08,25,01,38,11.80
2013,08,25,01,39,11.80
2013,08,25,01,40,11.80
2013,08,25,01,41,11.80
2013,08,25,01,42,11.80
2013,08,25,01,43,11.70
2013,08,25,01,44,11.70
2013,08,25,01,45,11.70
2013,08,25,01,46,11.70
2013,08,25,01,47,11.70
2013,08,25,01,48,11.70
2013,08,25,01,49,11.70
2013,08,25,01,50,11.70
2013,08,25,01,51,11.70
2013,08,25,01,52,11.70
2013,08,25,01,53,11.70
2013,08,25,01,54,11.70
2013,08,25,01,55,11.70
2013,08,25,01,56,11.70
2013,08,25,01,57,11.70
2013,08,25,01,58,11.70
2013,08,25,01,59,11.60
2013,08,25,02,00,11.60
2013,08,25,02,01,11.60
2013,08,25,02,02,11.60
2013,08,25,02,03,11.60
2013,08,25,02,04,11.60
2013,08,25,02,05,11.60
2013,08,25,02,06,11.60
2013,08,25,02,07,11.60
2013,08,25,02,08,11.60
2013,08,25,02,09,11.60
2013,08,25,02,10,11.60
2013,08,25,02,11,11.60
2013,08,25,02,12,11.60
2013,08,25,02,13,11.50
2013,08,25,02,14,11.40
2013,08,25,02,15,11.40
2013,08,25,02,16,11.40
2013,08,25,02,17,11.40
2013,08,25,02,18,11.40
2013,08,25,02,19,11.40
2013,08,25,02,20,11.40
2013,08,25,02,21,11.30
2013,08,25,02,22,11.30
2013,08,25,02,23,11.30
2013,08,25,02,24,11.30
2013,08,25,02,25,11.30
2013,08,25,02,26,11.30
2013,08,25,02,27,11.30
2013,08,25,02,28,11.30
2013,08,25,02,29,11.30
2013,08,25,02,30,11.30
2013,08,25,02,31,11.30
2013,08,25,02,32,11.30
2013,08,25,02,33,11.30
2013,08,25,02,34,11.30
2013,08,25,02,35,11.30
2013,08,25,02,36,11.30
2013,08,25,02,37,11.30
2013,08,25,02,38,11.30
2013,08,25,02,39,11.30
2013,08,25,02,40,11.30
2013,08,25,02,41,11.30
2013,08,25,02,42,11.30
2013,08,25,02,43,11.30
2013,08,25,02,44,11.30
2013,08,25,02,45,11.30
2013,08,25,02,46,11.20
2013,08,25,02,47,11.20
2013,08,25,02,48,11.20
2013,08,25,02,49,11.20
2013,08,25,02,50,11.20
2013,08,25,02,51,11.20
2013,08,25,02,52,11.20
2013,08,25,02,53,11.20
2013,08,25,02,54,11.20
2013,08,25,02,55,11.20
2013,08,25,02,56,11.10
2013,08,25,02,57,11.10
2013,08,25,02,58,11.10
2013,08,25,02,59,11.10
2013,08,25,03,00,11.10
2013,08,25,03,01,11.10
2013,08,25,03,02,11.10
2013,08,25,03,03,11.10
2013,08,25,03,04,11.10
2013,08,25,03,05,11.10
2013,08,25,03,06,11.10
2013,08,25,03,07,11.10
2013,08,25,03,08,11.10
2013,08,25,03,09,11.10
2013,08,25,03,10,11.10
2013,08,25,03,11,11.10
2013,08,25,03,12,11.10
2013,08,25,03,13,11.10
2013,08,25,03,14,11.10
2013,08,25,03,15,11.10
2013,08,25,03,16,11.00
2013,08,25,03,17,10.90
2013,08,25,03,18,10.90
2013,08,25,03,19,10.90
2013,08,25,03,20,10.90
2013,08,25,03,21,10.90
2013,08,25,03,22,10.90
2013,08,25,03,23,10.90
2013,08,25,03,24,10.90
2013,08,25,03,25,10.90
2013,08,25,03,26,10.90
2013,08,25,03,27,10.90
2013,08,25,03,28,10.90
2013,08,25,03,29,10.90
2013,08,25,03,30,10.90
2013,08,25,03,31,10.90
2013,08,25,03,32,10.90
2013,08,25,03,33,10.90
2013,08,25,03,34,10.90
2013,08,25,03,35,10.90
2013,08,25,03,36,10.90
2013,08,25,03,37,10.90
2013,08,25,03,38,10.90
2013,08,25,03,39,10.90
2013,08,25,03,40,10.90
2013,08,25,03,41,10.90
2013,08,25,03,42,10.90
2013,08,25,03,43,10.90
2013,08,25,03,44,10.90
2013,08,25,03,45,10.90
2013,08,25,03,46,10.90
2013,08,25,03,47,10.90
2013,08,25,03,48,10.90
2013,08,25,03,49,10.90
2013,08,25,03,50,10.90
2013,08,25,03,51,10.90
2013,08,25,03,52,10.90
2013,08,25,03,53,10.90
2013,08,25,03,54,10.90
2013,08,25,03,55,11.00
2013,08,25,03,56,11.10
2013,08,25,03,57,11.10
2013,08,25,03,58,11.10
2013,08,25,03,59,11.10
2013,08,25,04,00,11.10
2013,08,25,04,01,11.10
2013,08,25,04,02,11.10
2013,08,25,04,03,11.10
2013,08,25,04,04,11.10
2013,08,25,04,05,11.10
2013,08,25,04,06,11.10
2013,08,25,04,07,11.10
2013,08,25,04,08,11.00
2013,08,25,04,09,10.90
2013,08,25,04,10,10.90
2013,08,25,04,11,10.90
2013,08,25,04,12,10.90
2013,08,25,04,13,10.90
2013,08,25,04,14,10.90
2013,08,25,04,15,10.90
2013,08,25,04,16,10.90
2013,08,25,04,17,10.90
2013,08,25,04,18,10.80
2013,08,25,04,19,10.80
2013,08,25,04,20,10.80
2013,08,25,04,21,10.80
2013,08,25,04,22,10.80
2013,08,25,04,23,10.80
2013,08,25,04,24,10.80
2013,08,25,04,25,10.90
2013,08,25,04,26,10.80
2013,08,25,04,27,10.80
2013,08,25,04,28,10.70
2013,08,25,04,29,10.70
2013,08,25,04,30,10.70
2013,08,25,04,31,10.70
2013,08,25,04,32,10.70
2013,08,25,04,33,10.80
2013,08,25,04,34,10.80
2013,08,25,04,35,10.80
2013,08,25,04,36,10.80
2013,08,25,04,37,10.90
2013,08,25,04,38,10.90
2013,08,25,04,39,10.90
2013,08,25,04,40,10.90
2013,08,25,04,41,10.80
2013,08,25,04,42,10.80
2013,08,25,04,43,10.90
2013,08,25,04,44,10.90
2013,08,25,04,45,10.90
2013,08,25,04,46,10.90
2013,08,25,04,47,10.90
2013,08,25,04,48,10.90
2013,08,25,04,49,10.90
2013,08,25,04,50,10.90
2013,08,25,04,51,10.90
2013,08,25,04,52,10.90
2013,08,25,04,53,11.00
2013,08,25,04,54,11.10
2013,08,25,04,55,11.10
2013,08,25,04,56,11.10
2013,08,25,04,57,11.10
2013,08,25,04,58,11.20
2013,08,25,04,59,11.20
2013,08,25,05,00,11.20
2013,08,25,05,01,11.20
2013,08,25,05,02,11.20
2013,08,25,05,03,11.20
2013,08,25,05,04,11.20
2013,08,25,05,05,11.20
2013,08,25,05,06,11.30
2013,08,25,05,07,11.30
2013,08,25,05,08,11.30
2013,08,25,05,09,11.30
2013,08,25,05,10,11.30
2013,08,25,05,11,11.30
2013,08,25,05,12,11.30
2013,08,25,05,13,11.30
2013,08,25,05,14,11.30
2013,08,25,05,15,11.30
2013,08,25,05,16,11.30
2013,08,25,05,17,11.30
2013,08,25,05,18,11.40
2013,08,25,05,19,11.40
2013,08,25,05,20,11.40
2013,08,25,05,21,11.40
2013,08,25,05,22,11.40
2013,08,25,05,23,11.40
2013,08,25,05,24,11.40
2013,08,25,05,25,11.40
2013,08,25,05,26,11.40
2013,08,25,05,27,11.40
2013,08,25,05,28,11.40
2013,08,25,05,29,11.40
2013,08,25,05,30,11.30
2013,08,25,05,31,11.30
2013,08,25,05,32,11.30
2013,08,25,05,33,11.30
2013,08,25,05,34,11.30
2013,08,25,05,35,11.30
2013,08,25,05,36,11.30
2013,08,25,05,37,11.20
2013,08,25,05,38,11.20
2013,08,25,05,39,11.20
2013,08,25,05,40,11.20
2013,08,25,05,41,11.20
2013,08,25,05,42,11.20
2013,08,25,05,43,11.20
2013,08,25,05,44,11.20
2013,08,25,05,45,11.10
2013,08,25,05,46,11.10
2013,08,25,05,47,11.10
2013,08,25,05,48,11.10
2013,08,25,05,49,11.10
2013,08,25,05,50,11.10
2013,08,25,05,51,11.00
2013,08,25,05,52,10.90
2013,08,25,05,53,10.90
2013,08,25,05,54,10.90
2013,08,25,05,55,10.90
2013,08,25,05,56,10.90
2013,08,25,05,57,10.90
2013,08,25,05,58,10.90
2013,08,25,05,59,10.90
2013,08,25,06,00,10.90
2013,08,25,06,01,10.90
2013,08,25,06,02,10.90
2013,08,25,06,03,10.90
2013,08,25,06,04,10.90
2013,08,25,06,05,10.90
2013,08,25,06,06,10.90
2013,08,25,06,07,10.90
2013,08,25,06,08,10.90
2013,08,25,06,09,10.90
2013,08,25,06,10,10.90
2013,08,25,06,11,10.90
2013,08,25,06,12,10.90
2013,08,25,06,13,10.90
2013,08,25,06,14,10.90
2013,08,25,06,15,10.90
2013,08,25,06,16,10.90
2013,08,25,06,17,10.90
2013,08,25,06,18,10.80
2013,08,25,06,19,10.80
2013,08,25,06,20,10.80
2013,08,25,06,21,10.80
2013,08,25,06,22,10.80
2013,08,25,06,23,10.80
2013,08,25,06,24,10.70
2013,08,25,06,25,10.70
2013,08,25,06,26,10.70
2013,08,25,06,27,10.70
2013,08,25,06,28,10.70
2013,08,25,06,29,10.70
2013,08,25,06,30,10.60
2013,08,25,06,31,10.70
2013,08,25,06,32,10.70
2013,08,25,06,33,10.70
2013,08,25,06,34,10.70
2013,08,25,06,35,10.70
2013,08,25,06,36,10.70
2013,08,25,06,37,10.80
2013,08,25,06,38,10.80
2013,08,25,06,39,10.80
2013,08,25,06,40,10.70
2013,08,25,06,41,10.70
2013,08,25,06,42,10.70
2013,08,25,06,43,10.70
2013,08,25,06,44,10.70
2013,08,25,06,45,10.70
2013,08,25,06,46,10.70
2013,08,25,06,47,10.70
2013,08,25,06,48,10.70
2013,08,25,06,49,10.70
2013,08,25,06,50,10.70
2013,08,25,06,51,10.70
2013,08,25,06,52,10.70
2013,08,25,06,53,10.70
2013,08,25,06,54,10.70
2013,08,25,06,55,10.70
2013,08,25,06,56,10.70
2013,08,25,06,57,10.70
2013,08,25,06,58,10.80
2013,08,25,06,59,10.80
2013,08,25,07,00,10.80
2013,08,25,07,01,10.80
2013,08,25,07,02,10.80
2013,08,25,07,03,10.90
2013,08,25,07,04,10.90
2013,08,25,07,05,10.90
2013,08,25,07,06,10.90
2013,08,25,07,07,10.90
2013,08,25,07,08,11.00
2013,08,25,07,09,11.10
2013,08,25,07,10,11.10
2013,08,25,07,11,11.10
2013,08,25,07,12,11.10
2013,08,25,07,13,11.10
2013,08,25,07,14,11.20
2013,08,25,07,15,11.20
2013,08,25,07,16,11.30
2013,08,25,07,17,11.30
2013,08,25,07,18,11.40
2013,08,25,07,19,11.40
2013,08,25,07,20,11.40
2013,08,25,07,21,11.40
2013,08,25,07,22,11.40
2013,08,25,07,23,11.60
2013,08,25,07,24,11.60
2013,08,25,07,25,11.60
2013,08,25,07,26,11.60
2013,08,25,07,27,11.70
2013,08,25,07,28,11.80
2013,08,25,07,29,11.80
2013,08,25,07,30,11.90
2013,08,25,07,31,12.00
2013,08,25,07,32,12.10
2013,08,25,07,33,12.20
2013,08,25,07,34,12.20
2013,08,25,07,35,12.30
2013,08,25,07,36,12.30
2013,08,25,07,37,12.30
2013,08,25,07,38,12.40
2013,08,25,07,39,12.40
2013,08,25,07,40,12.40
2013,08,25,07,41,12.50
2013,08,25,07,42,12.50
2013,08,25,07,43,12.50
2013,08,25,07,44,12.60
2013,08,25,07,45,12.60
2013,08,25,07,46,12.70
2013,08,25,07,47,12.80
2013,08,25,07,48,12.80
2013,08,25,07,49,13.00
2013,08,25,07,50,13.10
2013,08,25,07,51,13.10
2013,08,25,07,52,13.20
2013,08,25,07,53,13.30
2013,08,25,07,54,13.40
2013,08,25,07,55,13.50
2013,08,25,07,56,13.60
2013,08,25,07,57,13.70
2013,08,25,07,58,13.80
2013,08,25,07,59,13.90
2013,08,25,08,00,14.00
2013,08,25,08,01,14.20
2013,08,25,08,02,14.20
2013,08,25,08,03,14.40
2013,08,25,08,04,14.50
2013,08,25,08,05,14.60
2013,08,25,08,06,14.80
2013,08,25,08,07,14.80
2013,08,25,08,08,14.90
2013,08,25,08,09,15.00
2013,08,25,08,10,15.10
2013,08,25,08,11,15.20
2013,08,25,08,12,15.30
2013,08,25,08,13,15.30
2013,08,25,08,14,15.40
2013,08,25,08,15,15.50
2013,08,25,08,16,15.50
2013,08,25,08,17,15.60
2013,08,25,08,18,15.70
2013,08,25,08,19,15.80
2013,08,25,08,20,15.80
2013,08,25,08,21,15.80
2013,08,25,08,22,15.80
2013,08,25,08,23,15.80
2013,08,25,08,24,15.80
2013,08,25,08,25,15.60
2013,08,25,08,26,15.50
2013,08,25,08,27,15.50
2013,08,25,08,28,15.50
2013,08,25,08,29,15.50
2013,08,25,08,30,15.50
2013,08,25,08,31,15.60
2013,08,25,08,32,15.60
2013,08,25,08,33,15.60
2013,08,25,08,34,15.70
2013,08,25,08,35,15.80
2013,08,25,08,36,15.90
2013,08,25,08,37,16.00
2013,08,25,08,38,16.10
2013,08,25,08,39,16.20
2013,08,25,08,40,16.20
2013,08,25,08,41,16.20
2013,08,25,08,42,16.20
2013,08,25,08,43,16.20
2013,08,25,08,44,16.20
2013,08,25,08,45,16.30
2013,08,25,08,46,16.40
2013,08,25,08,47,16.50
2013,08,25,08,48,16.60
2013,08,25,08,49,16.70
2013,08,25,08,50,16.70
2013,08,25,08,51,16.70
2013,08,25,08,52,16.80
2013,08,25,08,53,16.90
2013,08,25,08,54,16.90
2013,08,25,08,55,17.00
2013,08,25,08,56,17.10
2013,08,25,08,57,17.10
2013,08,25,08,58,17.20
2013,08,25,08,59,17.30
2013,08,25,09,00,17.30
2013,08,25,09,01,17.30
2013,08,25,09,02,17.30
2013,08,25,09,03,17.30
2013,08,25,09,04,17.30
2013,08,25,09,05,17.40
2013,08,25,09,06,17.40
2013,08,25,09,07,17.50
2013,08,25,09,08,17.60
2013,08,25,09,09,17.70
2013,08,25,09,10,17.80
2013,08,25,09,11,17.80
2013,08,25,09,12,17.90
2013,08,25,09,13,17.90
2013,08,25,09,14,18.00
2013,08,25,09,15,18.10
2013,08,25,09,16,18.10
2013,08,25,09,17,18.10
2013,08,25,09,18,18.10
2013,08,25,09,19,18.10
2013,08,25,09,20,18.10
2013,08,25,09,21,18.20
2013,08,25,09,22,18.20
2013,08,25,09,23,18.20
2013,08,25,09,24,18.20
2013,08,25,09,25,18.30
2013,08,25,09,26,18.40
2013,08,25,09,27,18.40
2013,08,25,09,28,18.50
2013,08,25,09,29,18.50
2013,08,25,09,30,18.50
2013,08,25,09,31,18.50
2013,08,25,09,32,18.50
2013,08,25,09,33,18.40
2013,08,25,09,34,18.30
2013,08,25,09,35,18.30
2013,08,25,09,36,18.20
2013,08,25,09,37,18.20
2013,08,25,09,38,18.20
2013,08,25,09,39,18.10
2013,08,25,09,40,18.10
2013,08,25,09,41,18.10
2013,08,25,09,42,18.20
2013,08,25,09,43,18.20
2013,08,25,09,44,18.30
2013,08,25,09,45,18.50
2013,08,25,09,46,18.50
2013,08,25,09,47,18.60
2013,08,25,09,48,18.70
2013,08,25,09,49,18.80
2013,08,25,09,50,18.90
2013,08,25,09,51,18.90
2013,08,25,09,52,18.90
2013,08,25,09,53,19.00
2013,08,25,09,54,19.10
2013,08,25,09,55,19.10
2013,08,25,09,56,19.10
2013,08,25,09,57,19.10
2013,08,25,09,58,19.10
2013,08,25,09,59,19.10
2013,08,25,10,00,19.10
2013,08,25,10,01,19.20
2013,08,25,10,02,19.20
2013,08,25,10,03,19.30
2013,08,25,10,04,19.30
2013,08,25,10,05,19.30
2013,08,25,10,06,19.20
2013,08,25,10,07,19.10
2013,08,25,10,08,19.10
2013,08,25,10,09,19.00
2013,08,25,10,10,18.90
2013,08,25,10,11,18.90
2013,08,25,10,12,18.90
2013,08,25,10,13,18.90
2013,08,25,10,14,18.90
2013,08,25,10,15,18.90
2013,08,25,10,16,18.90
2013,08,25,10,17,18.90
2013,08,25,10,18,18.90
2013,08,25,10,19,18.90
2013,08,25,10,20,18.90
2013,08,25,10,21,18.90
2013,08,25,10,22,18.90
2013,08,25,10,23,18.90
2013,08,25,10,24,18.90
2013,08,25,10,25,18.90
2013,08,25,10,26,18.90
2013,08,25,10,27,18.90
2013,08,25,10,28,18.90
2013,08,25,10,29,19.10
2013,08,25,10,30,19.10
2013,08,25,10,31,19.30
2013,08,25,10,32,19.30
2013,08,25,10,33,19.30
2013,08,25,10,34,19.40
2013,08,25,10,35,19.40
2013,08,25,10,36,19.40
2013,08,25,10,37,19.50
2013,08,25,10,38,19.50
2013,08,25,10,39,19.50
2013,08,25,10,40,19.30
2013,08,25,10,41,19.20
2013,08,25,10,42,19.20
2013,08,25,10,43,19.20
2013,08,25,10,44,19.20
2013,08,25,10,45,19.30
2013,08,25,10,46,19.40
2013,08,25,10,47,19.40
2013,08,25,10,48,19.40
2013,08,25,10,49,19.40
2013,08,25,10,50,19.40
2013,08,25,10,51,19.50
2013,08,25,10,52,19.50
2013,08,25,10,53,19.60
2013,08,25,10,54,19.70
2013,08,25,10,55,19.70
2013,08,25,10,56,19.70
2013,08,25,10,57,19.70
2013,08,25,10,58,19.70
2013,08,25,10,59,19.70
2013,08,25,11,00,19.70
2013,08,25,11,01,19.80
2013,08,25,11,02,19.80
2013,08,25,11,03,19.90
2013,08,25,11,04,20.00
2013,08,25,11,05,20.10
2013,08,25,11,06,20.20
2013,08,25,11,07,20.40
2013,08,25,11,08,20.40
2013,08,25,11,09,20.40
2013,08,25,11,10,20.30
2013,08,25,11,11,20.20
2013,08,25,11,12,20.20
2013,08,25,11,13,20.30
2013,08,25,11,14,20.20
2013,08,25,11,15,20.00
2013,08,25,11,16,19.90
2013,08,25,11,17,19.80
2013,08,25,11,18,19.80
2013,08,25,11,19,19.70
2013,08,25,11,20,19.60
2013,08,25,11,21,19.40
2013,08,25,11,22,19.40
2013,08,25,11,23,19.50
2013,08,25,11,24,19.60
2013,08,25,11,25,19.70
2013,08,25,11,26,19.80
2013,08,25,11,27,19.90
2013,08,25,11,28,20.00
2013,08,25,11,29,20.20
2013,08,25,11,30,20.20
2013,08,25,11,31,20.20
2013,08,25,11,32,20.20
2013,08,25,11,33,20.20
2013,08,25,11,34,20.30
2013,08,25,11,35,20.30
2013,08,25,11,36,20.20
2013,08,25,11,37,20.20
2013,08,25,11,38,20.30
2013,08,25,11,39,20.30
2013,08,25,11,40,20.40
2013,08,25,11,41,20.50
2013,08,25,11,42,20.60
2013,08,25,11,43,20.70
2013,08,25,11,44,20.90
2013,08,25,11,45,20.90
2013,08,25,11,46,20.90
2013,08,25,11,47,20.90
2013,08,25,11,48,20.80
2013,08,25,11,49,20.80
2013,08,25,11,50,20.90
2013,08,25,11,51,21.00
2013,08,25,11,52,21.10
2013,08,25,11,53,21.00
2013,08,25,11,54,21.00
2013,08,25,11,55,21.10
2013,08,25,11,56,21.00
2013,08,25,11,57,21.00
2013,08,25,11,58,21.00
2013,08,25,11,59,21.00
2013,08,25,12,00,21.10
2013,08,25,12,01,21.20
2013,08,25,12,02,21.20
2013,08,25,12,03,21.10
2013,08,25,12,04,21.10
2013,08,25,12,05,21.10
2013,08,25,12,06,21.10
2013,08,25,12,07,21.10
2013,08,25,12,08,21.00
2013,08,25,12,09,21.00
2013,08,25,12,10,21.00
2013,08,25,12,11,21.10
2013,08,25,12,12,21.10
2013,08,25,12,13,21.20
2013,08,25,12,14,21.30
2013,08,25,12,15,21.30
2013,08,25,12,16,21.30
2013,08,25,12,17,21.30
2013,08,25,12,18,21.30
2013,08,25,12,19,21.50
2013,08,25,12,20,21.60
2013,08,25,12,21,21.60
2013,08,25,12,22,21.60
2013,08,25,12,23,21.60
2013,08,25,12,24,21.60
2013,08,25,12,25,21.60
2013,08,25,12,26,21.60
2013,08,25,12,27,21.60
2013,08,25,12,28,21.60
2013,08,25,12,29,21.60
2013,08,25,12,30,21.60
2013,08,25,12,31,21.60
2013,08,25,12,32,21.60
2013,08,25,12,33,21.60
2013,08,25,12,34,21.60
2013,08,25,12,35,21.70
2013,08,25,12,36,21.70
2013,08,25,12,37,21.70
2013,08,25,12,38,21.60
2013,08,25,12,39,21.60
2013,08,25,12,40,21.60
2013,08,25,12,41,21.60
2013,08,25,12,42,21.50
2013,08,25,12,43,21.40
2013,08,25,12,44,21.50
2013,08,25,12,45,21.60
2013,08,25,12,46,21.60
2013,08,25,12,47,21.60
2013,08,25,12,48,21.70
2013,08,25,12,49,21.60
2013,08,25,12,50,21.60
2013,08,25,12,51,21.70
2013,08,25,12,52,21.90
2013,08,25,12,53,21.90
2013,08,25,12,54,21.90
2013,08,25,12,55,21.80
2013,08,25,12,56,21.80
2013,08,25,12,57,21.90
2013,08,25,12,58,22.00
2013,08,25,12,59,22.10
2013,08,25,13,00,22.20
2013,08,25,13,01,22.20
2013,08,25,13,02,22.30
2013,08,25,13,03,22.30
2013,08,25,13,04,22.30
2013,08,25,13,05,22.40
2013,08,25,13,06,22.60
2013,08,25,13,07,22.70
2013,08,25,13,08,22.80
2013,08,25,13,09,22.80
2013,08,25,13,10,22.80
2013,08,25,13,11,22.90
2013,08,25,13,12,22.90
2013,08,25,13,13,22.90
2013,08,25,13,14,22.90
2013,08,25,13,15,23.00
2013,08,25,13,16,23.10
2013,08,25,13,17,23.10
2013,08,25,13,18,23.10
2013,08,25,13,19,22.90
2013,08,25,13,20,22.90
2013,08,25,13,21,22.80
2013,08,25,13,22,22.80
2013,08,25,13,23,22.80
2013,08,25,13,24,22.60
2013,08,25,13,25,22.50
2013,08,25,13,26,22.50
2013,08,25,13,27,22.50
2013,08,25,13,28,22.60
2013,08,25,13,29,22.50
2013,08,25,13,30,22.50
2013,08,25,13,31,22.60
2013,08,25,13,32,22.70
2013,08,25,13,33,22.60
2013,08,25,13,34,22.40
2013,08,25,13,35,22.40
2013,08,25,13,36,22.50
2013,08,25,13,37,22.50
2013,08,25,13,38,22.40
2013,08,25,13,39,22.40
2013,08,25,13,40,22.40
2013,08,25,13,41,22.40
2013,08,25,13,42,22.50
2013,08,25,13,43,22.60
2013,08,25,13,44,22.60
2013,08,25,13,45,22.60
2013,08,25,13,46,22.60
2013,08,25,13,47,22.60
2013,08,25,13,48,22.60
2013,08,25,13,49,22.60
2013,08,25,13,50,22.50
2013,08,25,13,51,22.40
2013,08,25,13,52,22.30
2013,08,25,13,53,22.30
2013,08,25,13,54,22.20
2013,08,25,13,55,22.20
2013,08,25,13,56,22.20
2013,08,25,13,57,22.20
2013,08,25,13,58,22.20
2013,08,25,13,59,22.30
2013,08,25,14,00,22.40
2013,08,25,14,01,22.40
2013,08,25,14,02,22.40
2013,08,25,14,03,22.50
2013,08,25,14,04,22.40
2013,08,25,14,05,22.40
2013,08,25,14,06,22.50
2013,08,25,14,07,22.30
2013,08,25,14,08,22.20
2013,08,25,14,09,22.10
2013,08,25,14,10,22.00
2013,08,25,14,11,21.90
2013,08,25,14,12,21.80
2013,08,25,14,13,21.60
2013,08,25,14,14,21.60
2013,08,25,14,15,21.60
2013,08,25,14,16,21.60
2013,08,25,14,17,21.60
2013,08,25,14,18,21.60
2013,08,25,14,19,21.60
2013,08,25,14,20,21.60
2013,08,25,14,21,21.40
2013,08,25,14,22,21.30
2013,08,25,14,23,21.20
2013,08,25,14,24,21.00
2013,08,25,14,25,21.00
2013,08,25,14,26,21.00
2013,08,25,14,27,21.00
2013,08,25,14,28,21.10
2013,08,25,14,29,21.30
2013,08,25,14,30,21.50
2013,08,25,14,31,21.60
2013,08,25,14,32,21.60
2013,08,25,14,33,21.60
2013,08,25,14,34,21.60
2013,08,25,14,35,21.60
2013,08,25,14,36,21.60
2013,08,25,14,37,21.60
2013,08,25,14,38,21.60
2013,08,25,14,39,21.60
2013,08,25,14,40,21.60
2013,08,25,14,41,21.60
2013,08,25,14,42,21.70
2013,08,25,14,43,21.90
2013,08,25,14,44,21.90
2013,08,25,14,45,21.80
2013,08,25,14,46,21.70
2013,08,25,14,47,21.70
2013,08,25,14,48,21.80
2013,08,25,14,49,21.80
2013,08,25,14,50,21.90
2013,08,25,14,51,21.90
2013,08,25,14,52,22.00
2013,08,25,14,53,22.10
2013,08,25,14,54,22.10
2013,08,25,14,55,22.20
2013,08,25,14,56,22.20
2013,08,25,14,57,22.20
2013,08,25,14,58,22.20
2013,08,25,14,59,22.20
2013,08,25,15,00,22.10
2013,08,25,15,01,22.00
2013,08,25,15,02,22.00
2013,08,25,15,03,22.10
2013,08,25,15,04,22.10
2013,08,25,15,05,22.10
2013,08,25,15,06,22.00
2013,08,25,15,07,21.90
2013,08,25,15,08,21.80
2013,08,25,15,09,21.80
2013,08,25,15,10,21.70
2013,08,25,15,11,21.60
2013,08,25,15,12,21.60
2013,08,25,15,13,21.60
2013,08,25,15,14,21.60
2013,08,25,15,15,21.60
2013,08,25,15,16,21.50
2013,08,25,15,17,21.40
2013,08,25,15,18,21.30
2013,08,25,15,19,21.30
2013,08,25,15,20,21.30
2013,08,25,15,21,21.30
2013,08,25,15,22,21.20
2013,08,25,15,23,21.10
2013,08,25,15,24,21.00
2013,08,25,15,25,21.00
2013,08,25,15,26,21.00
2013,08,25,15,27,21.10
2013,08,25,15,28,21.10
2013,08,25,15,29,21.10
2013,08,25,15,30,21.10
2013,08,25,15,31,21.20
2013,08,25,15,32,21.20
2013,08,25,15,33,21.30
2013,08,25,15,34,21.30
2013,08,25,15,35,21.30
2013,08,25,15,36,21.30
2013,08,25,15,37,21.30
2013,08,25,15,38,21.30
2013,08,25,15,39,21.20
2013,08,25,15,40,21.20
2013,08,25,15,41,21.10
2013,08,25,15,42,21.10
2013,08,25,15,43,21.10
2013,08,25,15,44,21.20
2013,08,25,15,45,21.30
2013,08,25,15,46,21.30
2013,08,25,15,47,21.30
2013,08,25,15,48,21.30
2013,08,25,15,49,21.10
2013,08,25,15,50,21.00
2013,08,25,15,51,21.00
2013,08,25,15,52,21.00
2013,08,25,15,53,21.00
2013,08,25,15,54,20.90
2013,08,25,15,55,20.80
2013,08,25,15,56,20.80
2013,08,25,15,57,20.70
2013,08,25,15,58,20.70
2013,08,25,15,59,20.70
2013,08,25,16,00,20.60
2013,08,25,16,01,20.50
2013,08,25,16,02,20.40
2013,08,25,16,03,20.40
2013,08,25,16,04,20.30
2013,08,25,16,05,20.20
2013,08,25,16,06,20.20
2013,08,25,16,07,20.20
2013,08,25,16,08,20.20
2013,08,25,16,09,20.10
2013,08,25,16,10,20.10
2013,08,25,16,11,19.90
2013,08,25,16,12,19.90
2013,08,25,16,13,19.90
2013,08,25,16,14,19.90
2013,08,25,16,15,19.90
2013,08,25,16,16,19.90
2013,08,25,16,17,19.90
2013,08,25,16,18,19.90
2013,08,25,16,19,19.80
2013,08,25,16,20,19.70
2013,08,25,16,21,19.60
2013,08,25,16,22,19.60
2013,08,25,16,23,19.60
2013,08,25,16,24,19.60
2013,08,25,16,25,19.50
2013,08,25,16,26,19.50
2013,08,25,16,27,19.60
2013,08,25,16,28,19.60
2013,08,25,16,29,19.60
2013,08,25,16,30,19.60
2013,08,25,16,31,19.50
2013,08,25,16,32,19.40
2013,08,25,16,33,19.40
2013,08,25,16,34,19.40
2013,08,25,16,35,19.50
2013,08,25,16,36,19.50
2013,08,25,16,37,19.50
2013,08,25,16,38,19.40
2013,08,25,16,39,19.40
2013,08,25,16,40,19.30
2013,08,25,16,41,19.20
2013,08,25,16,42,19.20
2013,08,25,16,43,19.10
2013,08,25,16,44,19.10
2013,08,25,16,45,19.10
2013,08,25,16,46,19.10
2013,08,25,16,47,19.10
2013,08,25,16,48,19.10
2013,08,25,16,49,19.10
2013,08,25,16,50,19.10
2013,08,25,16,51,19.10
2013,08,25,16,52,19.10
2013,08,25,16,53,19.10
2013,08,25,16,54,19.10
2013,08,25,16,55,19.10
2013,08,25,16,56,19.10
2013,08,25,16,57,19.10
2013,08,25,16,58,19.10
2013,08,25,16,59,19.10
2013,08,25,17,00,19.10
2013,08,25,17,01,19.10
2013,08,25,17,02,19.20
2013,08,25,17,03,19.20
2013,08,25,17,04,19.10
2013,08,25,17,05,19.10
2013,08,25,17,06,19.10
2013,08,25,17,07,19.10
2013,08,25,17,08,19.20
2013,08,25,17,09,19.20
2013,08,25,17,10,19.20
2013,08,25,17,11,19.30
2013,08,25,17,12,19.30
2013,08,25,17,13,19.40
2013,08,25,17,14,19.40
2013,08,25,17,15,19.40
2013,08,25,17,16,19.50
2013,08,25,17,17,19.50
2013,08,25,17,18,19.60
2013,08,25,17,19,19.60